Regional Weather Roundup
Issued by NWS Austin/San Antonio, TX

Home | Current Version | Previous Version | Text Only | Print | Product List | Glossary On
Versions: 1 2 3 4 5 6 7 8 9 10 11 12 13 14 15 16 17 18 19 20 21 22 23 24 25 26 27 28 29 30 31 32 33 34 35 36 37 38 39 40 41 42 43 44 45 46 47 48 49 50
000
ASUS44 KEWX 221210
RWREWX
SOUTH TEXAS REGIONAL WEATHER ROUNDUP
NATIONAL WEATHER SERVICE AUSTIN/SAN ANTONIO TX
700 AM CDT TUE AUG 22 2017

NOTE: "FAIR" INDICATED FEW OR NO CLOUDS BELOW 12,000 FEET WITH NO
SIGNIFICANT WEATHER AND/OR OBSTRUCTIONS TO VISIBILITY.

* - THESE STATIONS ARE NOT NWS OR FAA STATIONS...AND ARE NOT SUBJECT
    TO NWS AND FAA QUALITY CONTROL.

TXZ171-172-183>190-221300-
TEXAS HILL COUNTRY AND EDWARDS PLATEAU

CITY           SKY/WX    TMP DP  RH WIND       PRES   REMARKS
JUNCTION       CLEAR     74  67  78 S3        30.09R
6HR MIN TEMP:  74; 6HR MAX TEMP:  81;

*LLANO         CLEAR     72  70  94 CALM      30.10R
BURNET         CLEAR     74  70  87 S3        30.10R
6HR MIN TEMP:  73; 6HR MAX TEMP:  82;

*HORSESHOE BAY CLEAR     71  68  90 CALM      30.08R
6HR MIN TEMP:  71; 6HR MAX TEMP:  81;

*KERRVILLE     PTCLDY    72  70  93 SE3       30.10R
6HR MIN TEMP:  72; 6HR MAX TEMP:  79;

*FREDERICKSBRG CLEAR     69  65  89 CALM      30.10R
6HR MIN TEMP:  69; 6HR MAX TEMP:  79;

*ROCKSPRINGS   NOT AVBL
*BOERNE STAGE  MOCLDY   N/A N/A N/A SW5       30.09R
*CASTROVILLE   MOCLDY    75  73  91 CALM      30.07S
HONDO          PTCLDY    75  71  87 NE3       30.06S
6HR MIN TEMP:  75; 6HR MAX TEMP:  82;

*UVALDE        PTCLDY    73  69  89 CALM      30.06S
6HR MIN TEMP:  73; 6HR MAX TEMP:  82;

DEL RIO        CLEAR     76  68  76 E8        30.03R
6HR MIN TEMP:  76; 6HR MAX TEMP:  84;

LAUGHLIN AFB   PTCLDY    75  68  80 E6        30.04R
6HR MIN TEMP:  75; 6HR MAX TEMP:  83;

CARRIZO SPRGS  CLEAR     73  70  88 E3        30.02R
*EAGLE PASS    NOT AVBL
$$

TXZ173-191>194-202-209-217>225-228-221300-
CENTRAL AND SOUTH CENTRAL TEXAS

CITY           SKY/WX    TMP DP  RH WIND       PRES   REMARKS
GEORGETOWN     CLEAR     76  72  87 SW3       30.07R
6HR MIN TEMP:  76; 6HR MAX TEMP:  83;

AUSTIN/BERGSTM PTCLDY    71  70  96 CALM      30.04R
6HR MIN TEMP:  71; 6HR MAX TEMP:  82;

AUSTIN/MABRY   CLEAR     76  72  87 CALM      30.06R
6HR MIN TEMP:  76; 6HR MAX TEMP:  83;

*AUSTIN/EXEC   CLEAR     73  73 100 CALM      30.06R
*LAGO VISTA    CLEAR     76  73  89 SW5       30.08R
6HR MIN TEMP:  76; 6HR MAX TEMP:  81;

SAN MARCOS     CLEAR     74  72  93 W3        30.05S
6HR MIN TEMP:  72; 6HR MAX TEMP:  80;

NEW BRAUNFELS  PTCLDY    74  72  93 W5        30.03S
6HR MIN TEMP:  71; 6HR MAX TEMP:  80;

RANDOLPH AFB   CLEAR     76  76 100 CALM      30.05R
6HR MIN TEMP:  73; 6HR MAX TEMP:  79;

PT SAN ANTONIO CLEAR     74  71  92 CALM      30.03S
6HR MIN TEMP:  74; 6HR MAX TEMP:  80;

SAN ANTONIO    MOCLDY    77  73  87 W5        30.05F
6HR MIN TEMP:  77; 6HR MAX TEMP:  81;

STINSON FIELD  CLEAR     75  72  90 CALM      30.03R
6HR MIN TEMP:  75; 6HR MAX TEMP:  81;

*LA GRANGE     PTCLDY    73  73  98 CALM      30.02R
6HR MIN TEMP:  73; 6HR MAX TEMP:  80;

*GIDDINGS      CLEAR     70  69  96 CALM      30.04S
6HR MIN TEMP:  70; 6HR MAX TEMP:  79;

*GONZALES      CLEAR     72  72 100 CALM      30.03R
6HR MIN TEMP:  72; 6HR MAX TEMP:  79;

$$

TXZ163>164-176>182-195>201-210>213-226-227-235-221300-
SOUTHEAST TEXAS

CITY           SKY/WX    TMP DP  RH WIND       PRES   REMARKS
COLLEGE STN    CLEAR     75  73  93 CALM      30.03S
6HR MIN TEMP:  75; 6HR MAX TEMP:  81;

*BRYAN         CLEAR     71  71 100 CALM      30.06R
6HR MIN TEMP:  71; 6HR MAX TEMP:  79;

*CALDWELL      NOT AVBL
*CROCKETT      CLEAR     70  68  94 CALM      30.08S
*BRENHAM       PTCLDY    73  72  98 CALM      30.05R
6HR MIN TEMP:  73; 6HR MAX TEMP:  80;

HUNTSVILLE     CLEAR     74  71  91 CALM      30.05R
6HR MIN TEMP:  74; 6HR MAX TEMP:  80;

CONROE         CLEAR     70  69  97 CALM      30.04R
6HR MIN TEMP:  70; 6HR MAX TEMP:  75;

HOUSTON BUSH   PTCLDY    76  74  93 NW3       30.03R
6HR MIN TEMP:  75; 6HR MAX TEMP:  78;

HOUSTON HOBBY  PTCLDY    79  74  84 CALM      30.02R
6HR MIN TEMP:  79; 6HR MAX TEMP:  84;

*HOUSTON SW AP CLEAR     71  70  98 CALM      30.04R
6HR MIN TEMP:  71; 6HR MAX TEMP:  74;

PEARLAND       CLEAR     77  73  87 CALM      30.04R
6HR MIN TEMP:  77; 6HR MAX TEMP:  82;

HOUSTON HOOKS  CLEAR     74  73  97 CALM      30.03R
6HR MIN TEMP:  73; 6HR MAX TEMP:  77;

ELLINGTON FLD  PTCLDY    79  72  78 CALM      30.04S
SUGAR LAND     CLEAR     75  74  96 CALM      30.03R
6HR MIN TEMP:  74; 6HR MAX TEMP:  80;

*HOUSTON EXEC  FOG       72  72 100 NE3       30.04R VSB 3/4
*CLEVELAND MUN CLEAR     72  71  97 CALM      30.04S FOG
6HR MIN TEMP:  72; 6HR MAX TEMP:  74;

*WHARTON       CLEAR     72  70  95 CALM      30.03S
6HR MIN TEMP:  72; 6HR MAX TEMP:  76;

*COLUMBUS      MOCLDY    72  70  95 CALM      30.05R
6HR MIN TEMP:  72; 6HR MAX TEMP:  76;

*EAGLE LAKE    SUNNY     75  74  99 CALM      30.03R
6HR MIN TEMP:  74; 6HR MAX TEMP:  78;

$$

TXZ214>216-236>238-221300-
THE UPPER TEXAS COAST

CITY           SKY/WX    TMP DP  RH WIND       PRES   REMARKS
*ORANGE        CLEAR     75  75 100 CALM      30.05R FOG
6HR MIN TEMP:  75; 6HR MAX TEMP:  77;

PORT ARTHUR    CLEAR    N/A N/A N/A CALM      30.03R
GALVESTON      PTCLDY    82  77  84 CALM      30.03R HX  90
6HR MIN TEMP:  80; 6HR MAX TEMP:  84;

ANGLETON       CLEAR     74  73  97 CALM      30.02S
6HR MIN TEMP:  72; 6HR MAX TEMP:  78;

*BAY CITY      CLEAR     73  73  99 NE3       30.02R
PALACIOS       MOCLDY    74  74 100 CALM      30.01R
6HR MIN TEMP:  74; 6HR MAX TEMP:  80;

$$

TXZ229>234-239>247-221300-
TEXAS COASTAL BEND AND RIO GRANDE PLAINS

CITY           SKY/WX    TMP DP  RH WIND       PRES   REMARKS
VICTORIA       CLEAR     74  72  93 NE3       30.02R
6HR MIN TEMP:  73; 6HR MAX TEMP:  80;

*BEEVILLE      CLEAR    N/A N/A N/A CALM      30.01S
ROCKPORT       CLEAR     77  74  90 CALM      30.00R
6HR MIN TEMP:  77; 6HR MAX TEMP:  84;

*PORT ARANSAS  CLEAR     81  74  81 CALM      29.99S
6HR MIN TEMP:  81; 6HR MAX TEMP:  83;

*PORT LAVACA   CLEAR     75  72  88 CALM      30.02R
*INGLESIDE     CLEAR     80  75  84 MISG      30.00R
CORPUS CHRISTI PTCLDY    76  74  93 CALM      30.00R
6HR MIN TEMP:  74; 6HR MAX TEMP:  82;

CORPUS NAS     PTCLDY    80  76  87 CALM      29.99S
6HR MIN TEMP:  79; 6HR MAX TEMP:  85;

*ROBSTOWN      CLEAR     77  77 100 CALM      30.00S
6HR MIN TEMP:  77; 6HR MAX TEMP:  83;

ALICE          CLEAR     74  71  91 NE3       30.00R
6HR MIN TEMP:  73; 6HR MAX TEMP:  79;

KINGSVILLE NAS PTCLDY    75  75 100 CALM      30.00R
6HR MIN TEMP:  75; 6HR MAX TEMP:  81;

COTULLA        CLEAR     75  72  90 CALM      30.02S
6HR MIN TEMP:  75; 6HR MAX TEMP:  82;

*FAITH RANCH   CLEAR     75  72  88 E5        30.02S
LAREDO         CLEAR     76  73  91 E5        30.01S
6HR MIN TEMP:  76; 6HR MAX TEMP:  82;

$$

TXZ248>255-221300-
DEEP SOUTH TEXAS

CITY           SKY/WX    TMP DP  RH WIND       PRES   REMARKS
BROWNSVILLE    CLEAR     77  77 100 CALM      29.98R
6HR MIN TEMP:  76; 6HR MAX TEMP:  82;

PORT ISABEL    CLEAR     79  76  90 CALM      29.98R
6HR MIN TEMP:  78; 6HR MAX TEMP:  83;

*SOUTH PADRE   NOT AVBL
HARLINGEN      CLEAR     76  75  97 NE3       29.98R
6HR MIN T


USA.gov is the U.S. government's official web portal to all federal, state and local government web resources and services.